Waarnemingen

Advertentie
Mijn weer
Bergerac, Frankrijk (7530): temperatuur & dauwpunt: 12.10.2019 19:00:00 - 18.10.2019 19:00:00 (CEST)Bergerac, Frankrijk (7530): temperatuur 5cm: 12.10.2019 19:00:00 - 18.10.2019 19:00:00 (CEST)Bergerac, Frankrijk (7530): temperatuur -20cm & temperatuur -100cm: 12.10.2019 19:00:00 - 18.10.2019 19:00:00 (CEST)Bergerac, Frankrijk (7530): windsnelheid & windstoten: 12.10.2019 19:00:00 - 18.10.2019 19:00:00 (CEST)Bergerac, Frankrijk (7530): windrichting: 12.10.2019 19:00:00 - 18.10.2019 19:00:00 (CEST)Bergerac, Frankrijk (7530): luchtdruk: 12.10.2019 19:00:00 - 18.10.2019 19:00:00 (CEST)Bergerac, Frankrijk (7530): zicht: 12.10.2019 19:00:00 - 18.10.2019 19:00:00 (CEST)Bergerac, Frankrijk (7530): Zonneschijnduur: 12.10.2019 19:00:00 - 18.10.2019 19:00:00 (CEST)Bergerac, Frankrijk (7530): neerslag: 12.10.2019 19:00:00 - 18.10.2019 19:00:00 (CEST)
Datum & Tijd tt [°C] td [°C] tt 5cm [°C] tt -20cm [°C] tt -100cm [°C] ff [km/u] ff [kn] fx [km/u] fx [kn] dd ppp [hPa] vv [km] sd [min] rr [mm]
18.10.2019 19:00:00 16,0 12,4 15,1 16,6 17,4 8 5 21 12 Z 1013,7 9 0 0,0
18.10.2019 18:00:00 16,3 13,2 15,2 16,5 17,4 10 6 22 12 Z 1014,0 57 0 0,0
18.10.2019 17:00:00 17,8 13,3 18,9 16,4 17,4 12 7 25 14 Z 1014,1 59 13 0,0
18.10.2019 16:00:00 17,5 13,2 18,5 16,4 17,4 11 6 24 13 Z 1014,4 42 0 0,0
18.10.2019 15:00:00 17,4 12,9 17,9 16,3 17,4 12 6 23 13 Z 1014,6 56 0 0,0
18.10.2019 14:00:00 17,3 13,6 17,6 16,2 17,4 13 7 20 11 Z 1015,1 60 0 0,0
18.10.2019 13:00:00 16,7 14,2 18,0 16,2 17,4 12 7 23 12 ZZW 1015,9 35 0 0,2
18.10.2019 12:00:00 16,0 14,2 16,1 16,2 17,4 8 5 15 8 Z 1016,1 19 0 0,0
18.10.2019 11:00:00 15,2 13,7 14,8 16,3 17,4 8 4 13 7 Z 1016,0 20 0 0,0
18.10.2019 10:00:00 14,2 13,4 13,7 16,3 17,4 6 3 14 8 Z 1015,6 31 0 0,0
18.10.2019 09:00:00 13,7 13,2 12,2 16,4 17,4 8 4 11 6 Z 1015,0 35 0 1,0
18.10.2019 08:00:00 12,2 11,6 9,8 16,5 17,4 3 2 8 4 ZO 1014,3 10 0 0,2
18.10.2019 07:00:00 11,4 10,6 9,2 16,5 17,4 5 3 6 4 O 1014,1 2,8 0 0,0
18.10.2019 06:00:00 11,9 11,1 9,6 16,6 17,4 4 2 6 3 O 1014,0 0,5 0 0,0
18.10.2019 05:00:00 12,9 12,1 11,0 16,6 17,5 0 0 7 4 N 1013,7 13 0 0,0
18.10.2019 04:00:00 13,2 12,6 11,5 16,7 17,4 0 0 9 5 N 1013,9 15 0 0,0
18.10.2019 03:00:00 12,7 11,9 11,8 16,8 17,5 7 4 11 6 ONO 1013,8 17 0 0,0
18.10.2019 02:00:00 13,4 12,6 11,9 16,8 17,4 5 3 11 6 NO 1014,3 18 0 0,0
18.10.2019 01:00:00 12,8 12,0 10,3 16,9 17,4 5 3 8 4 NO 1014,7 20 0 0,0
18.10.2019 00:00:00 12,9 11,6 9,8 17,0 17,5 0 0 8 4 N 1014,8 16 0 0,0
17.10.2019 23:00:00 14,9 12,6 10,7 17,0 17,4 3 2 8 4 ZZO 1014,9 49 0 0,0
17.10.2019 22:00:00 17,3 13,2 15,3 17,0 17,5 8 4 19 11 ZW 1014,8 60 0 0,0
17.10.2019 21:00:00 16,7 12,8 14,4 17,0 17,5 8 5 17 9 Z 1014,7 60 0 0,0
17.10.2019 20:00:00 17,3 12,8 15,2 16,9 17,5 10 5 15 8 ZZO 1014,2 59 0 0,0
17.10.2019 19:00:00 18,8 13,0 17,5 16,8 17,4 10 5 19 10 ZZO 1014,1 46 1 0,0
17.10.2019 18:00:00 19,7 13,6 19,5 16,6 17,5 9 5 21 12 Z 1013,9 60 29 0,0
17.10.2019 17:00:00 21,1 13,3 22,2 16,5 17,5 13 7 26 14 ZZW 1013,7 60 47 0,0
17.10.2019 16:00:00 20,2 13,6 21,8 16,4 17,5 13 7 34 18 ZZW 1014,2 58 28 0,0
17.10.2019 15:00:00 20,0 13,9 21,5 16,3 17,5 15 8 25 13 ZZW 1014,5 60 27 0,0
17.10.2019 14:00:00 18,6 14,9 16,6 16,3 17,5 13 7 24 13 ZZO 1014,7 50 32 0,0
17.10.2019 13:00:00 15,4 13,9 14,6 16,2 17,5 13 7 20 11 ZO 1015,1 55 0 0,0
17.10.2019 12:00:00 14,6 13,3 13,8 16,3 17,5 5 3 15 8 ONO 1015,5 25 0 0,0
17.10.2019 11:00:00 13,9 12,6 13,2 16,3 17,5 9 5 22 12 ZZO 1015,5 4,8 0 1,2
17.10.2019 10:00:00 13,4 12,3 12,8 16,3 17,5 8 5 13 7 O 1015,1 8 0 2,0
17.10.2019 09:00:00 13,5 11,7 12,6 16,4 17,5 5 3 15 8 O 1014,7 13 0 0,8
17.10.2019 08:00:00 13,7 11,4 12,6 16,4 17,5 6 3 26 14 ZO 1013,6 34 0 0,0
17.10.2019 07:00:00 13,7 11,6 12,8 16,4 17,5 12 6 21 11 ZO 1013,2 20 0 0,8
17.10.2019 06:00:00 14,4 11,2 12,9 16,5 17,5 9 5 20 11 ZZO 1013,4 33 0 0,2
17.10.2019 05:00:00 15,0 10,8 14,2 16,5 17,5 10 5 27 14 ZZO 1013,4 59 0 0,0
17.10.2019 04:00:00 14,9 10,9 14,1 16,6 17,5 16 8 28 15 ZZO 1013,4 60 0 0,0
17.10.2019 03:00:00 15,0 10,8 14,1 16,6 17,5 16 8 29 16 ZZO 1013,8 60 0 0,0
17.10.2019 02:00:00 15,3 10,7 13,8 16,6 17,5 15 8 28 15 ZZO 1014,0 60 0 0,0
17.10.2019 01:00:00 15,5 11,3 13,7 16,7 17,6 12 6 25 13 ZO 1013,9 60 0 0,0
17.10.2019 00:00:00 15,2 12,1 14,3 16,6 17,5 8 4 12 7 O 1014,5 60 0 0,0
16.10.2019 23:00:00 15,3 13,1 14,5 16,6 17,6 7 4 12 7 ONO 1014,2 48 0 0,0
16.10.2019 22:00:00 15,4 13,4 14,7 16,6 17,6 6 3 12 7 NO 1014,2 60 0 0,0
16.10.2019 21:00:00 15,2 14,1 13,7 16,6 17,6 10 5 13 7 O 1014,0 39 0 0,0
16.10.2019 20:00:00 15,6 14,0 14,5 16,6 17,6 5 3 7 4 O 1014,4 47 0 0,0
16.10.2019 19:00:00 16,9 13,6 16,4 16,5 17,6 2 1 6 3 ZZO 1014,1 60 24 0,0
16.10.2019 18:00:00 17,0 12,5 15,3 16,4 17,6 6 3 11 6 ZO 1014,0 60 9 0,2
16.10.2019 17:00:00 16,8 11,9 14,6 16,3 17,6 8 4 17 9 ZZO 1014,3 20 0 0,6
16.10.2019 16:00:00 19,3 8,9 19,3 16,1 17,6 10 5 23 12 Z 1014,3 60 0 0,0
16.10.2019 15:00:00 19,9 8,9 22,3 16,0 17,6 15 8 31 17 Z 1014,5 55 25 0,0
16.10.2019 14:00:00 19,8 9,1 22,5 15,9 17,6 19 10 35 19 Z 1015,0 26 58 0,0
16.10.2019 13:00:00 18,4 8,4 21,0 15,9 17,6 21 11 36 19 ZZO 1015,7 28 60 0,0
16.10.2019 12:00:00 16,6 8,8 17,3 15,9 17,6 22 12 36 19 ZZO 1016,0 20 60 0,0
16.10.2019 11:00:00 14,6 8,5 15,5 16,0 17,6 15 8 27 15 ZZO 1016,2 40 49 0,0
16.10.2019 10:00:00 12,6 8,3 9,6 16,1 17,6 9 5 22 12 ZO 1016,1 50 60 0,0
16.10.2019 09:00:00 10,4 8,0 7,2 16,2 17,6 4 2 11 6 O 1015,9 53 20 0,0
16.10.2019 08:00:00 9,6 7,4 7,1 16,3 17,6 5 3 18 10 ONO 1016,1 60 0 0,2
16.10.2019 07:00:00 9,9 7,8 7,7 16,5 17,6 5 3 18 10 ZO 1016,0 60 0 0,0
16.10.2019 06:00:00 9,8 8,1 7,4 16,6 17,7 8 5 13 7 NO 1016,2 58 0 0,0
16.10.2019 05:00:00 10,2 8,6 7,0 16,7 17,7 6 3 11 6 NNO 1016,4 57 0 0,0
16.10.2019 04:00:00 10,0 8,8 7,4 16,8 17,7 4 2 16 9 ONO 1016,9 52 0 0,0
16.10.2019 03:00:00 10,7 9,3 8,6 16,9 17,7 8 4 14 8 OZO 1017,2 52 0 0,0
16.10.2019 02:00:00 11,3 9,6 9,0 17,0 17,7 7 4 20 11 OZO 1017,5 59 0 0,0
16.10.2019 01:00:00 11,6 10,0 9,6 17,1 17,7 8 4 11 6 O 1017,5 56 0 0,0
16.10.2019 00:00:00 12,9 10,3 11,3 17,2 17,7 5 3 17 9 ONO 1017,9 56 0 0,0
15.10.2019 23:00:00 13,5 11,4 12,2 17,2 17,7 7 4 16 9 Z 1018,2 60 0 0,0
15.10.2019 22:00:00 13,5 10,8 11,7 17,3 17,7 7 4 22 12 ZZW 1018,1 60 0 0,0
15.10.2019 21:00:00 13,8 10,4 12,5 17,3 17,7 10 5 27 15 ZW 1017,9 60 0 0,0
15.10.2019 20:00:00 14,9 10,5 14,3 17,3 17,7 14 8 31 17 ZW 1017,5 60 0 0,0
15.10.2019 19:00:00 15,6 9,5 14,9 17,3 17,7 19 11 35 19 ZW 1016,8 60 1 0,0
15.10.2019 18:00:00 16,7 10,5 16,1 17,2 17,7 17 9 29 16 ZW 1015,9 51 36 0,0
15.10.2019 17:00:00 17,6 11,8 18,9 17,1 17,7 12 7 29 15 ZZW 1015,6 60 51 0,0
15.10.2019 16:00:00 17,1 12,2 18,6 17,0 17,7 15 8 42 23 ZZW 1015,6 39 56 0,0
15.10.2019 15:00:00 16,6 11,5 16,2 16,9 17,7 21 12 36 19 ZZW 1015,7 47 33 0,0
15.10.2019 14:00:00 17,0 10,4 17,8 16,8 17,7 20 11 33 18 W 1015,3 39 47 0,0
15.10.2019 13:00:00 16,6 10,2 14,8 16,8 17,6 18 10 34 18 WZW 1015,6 60 48 0,0
15.10.2019 12:00:00 15,5 11,7 15,6 16,8 17,7 18 10 29 16 WZW 1015,5 60 42 0,0
15.10.2019 11:00:00 14,2 11,4 12,6 16,9 17,7 16 9 29 16 ZW 1015,0 44 34 0,0
15.10.2019 10:00:00 12,4 11,1 11,5 17,0 17,7 14 8 33 18 WZW 1014,3 60 0 0,8
15.10.2019 09:00:00 11,9 10,6 11,1 17,2 17,7 14 8 35 19 WZW 1013,2 60 0 1,0
15.10.2019 08:00:00 11,7 10,3 11,1 17,2 17,7 15 8 28 15 ZZW 1012,5 53 0 0,6
15.10.2019 07:00:00 12,1 10,8 11,6 17,3 17,7 15 8 28 15 WZW 1012,2 19 0 1,0
15.10.2019 06:00:00 12,6 11,3 12,0 17,4 17,7 16 9 37 20 WZW 1011,6 10 0 0,4
15.10.2019 05:00:00 13,0 11,7 12,1 17,5 17,6 11 6 28 15 ZW 1011,0 59 0 0,4
15.10.2019 04:00:00 13,3 11,9 12,6 17,6 17,6 14 8 26 14 ZW 1010,7 11 0 0,6
15.10.2019 03:00:00 13,6 12,5 12,9 17,7 17,7 6 4 26 14 ZZW 1011,0 19 0 1,2
15.10.2019 02:00:00 13,9 12,6 13,3 17,8 17,6 14 7 22 12 W 1010,6 6 0 1,8
15.10.2019 01:00:00 14,5 13,5 13,9 17,8 17,6 8 5 16 8 ZZW 1010,8 20 0 1,4
15.10.2019 00:00:00 14,4 13,6 13,7 17,9 17,6 7 4 17 9 ZZW 1010,6 19 0 0,0
14.10.2019 23:00:00 14,2 13,4 13,3 18,0 17,6 4 2 9 5 OZO 1009,5 39 0 0,0
14.10.2019 22:00:00 14,0 13,2 13,0 18,1 17,6 6 4 11 6 ONO 1008,6 15 0 1,2
14.10.2019 21:00:00 14,7 13,7 14,1 18,1 17,6 5 3 10 6 W 1009,5 7 0 1,8
14.10.2019 20:00:00 14,9 13,9 14,3 18,2 17,6 9 5 16 9 W 1009,1 2,2 0 1,7
14.10.2019 19:00:00 14,9 13,3 14,2 18,2 17,6 3 1 29 16 NW 1009,0 8 0 3,8
14.10.2019 18:00:00 15,0 12,9 14,4 18,2 17,6 26 14 61 33 W 1009,1 10 0 0,6
14.10.2019 17:00:00 21,4 16,4 19,5 18,2 17,6 20 11 42 23 ZO 1006,3 32 0 0,0
14.10.2019 16:00:00 20,4 16,0 17,3 18,2 17,6 27 14 65 35 ZO 1005,9 36 0 0,6
14.10.2019 15:00:00 20,6 15,2 17,6 18,2 17,6 33 18 57 31 ZZO 1007,7 12 0 0,4
14.10.2019 14:00:00 22,7 14,8 18,3 18,1 17,6 26 14 48 26 ZO 1007,3 38 0 0,2
14.10.2019 13:00:00 23,4 14,1 22,7 18,1 17,6 26 14 63 34 ZZO 1007,2 37 0 0,0
14.10.2019 12:00:00 23,0 13,7 22,7 18,1 17,6 30 16 56 30 ZO 1007,0 40 1 0,0
14.10.2019 11:00:00 22,2 13,5 21,4 18,1 17,5 32 17 59 32 ZO 1007,3 44 7 0,0
14.10.2019 10:00:00 21,6 13,8 19,7 18,1 17,6 28 15 55 30 ZO 1007,8 58 57 0,0
14.10.2019 09:00:00 19,9 13,4 18,6 18,2 17,6 23 12 54 29 OZO 1008,0 26 27 0,0
14.10.2019 08:00:00 19,7 13,8 18,2 18,3 17,5 27 14 47 26 ZO 1008,2 45 0 0,0
14.10.2019 07:00:00 19,3 13,9 18,0 18,3 17,5 20 11 56 30 OZO 1008,7 47 0 0,0
14.10.2019 06:00:00 19,2 14,5 17,5 18,4 17,5 29 15 45 24 ZO 1009,1 57 0 0,0
14.10.2019 05:00:00 19,2 14,2 17,9 18,5 17,5 20 11 40 22 ZO 1010,1 60 0 0,0
14.10.2019 04:00:00 19,3 14,1 18,1 18,6 17,5 17 9 40 22 OZO 1010,2 60 0 0,0
14.10.2019 03:00:00 19,7 14,3 18,0 18,6 17,5 17 9 38 21 OZO 1010,8 60 0 0,0
14.10.2019 02:00:00 19,5 14,3 18,0 18,7 17,5 16 9 36 19 O 1011,2 60 0 0,0
14.10.2019 01:00:00 19,7 14,5 18,2 18,8 17,5 16 9 34 19 OZO 1011,8 60 0 0,0
14.10.2019 00:00:00 20,1 14,5 18,1 18,9 17,5 18 10 34 18 OZO 1012,2 60 0 0,0
13.10.2019 23:00:00 20,8 14,9 15,7 18,9 17,5 13 7 25 13 O 1012,8 60 0 0,0
13.10.2019 22:00:00 21,0 14,2 16,9 19,0 17,5 7 4 21 11 O 1013,0 59 0 0,0
13.10.2019 21:00:00 22,7 14,8 17,5 18,9 17,5 13 7 28 15 ZO 1012,5 60 0 0,0
13.10.2019 20:00:00 23,3 14,3 18,9 18,9 17,5 5 3 35 19 NNW 1012,1 60 0 0,0
13.10.2019 19:00:00 25,7 13,9 23,9 18,8 17,5 19 10 36 20 ZO 1010,8 59 19 0,0
13.10.2019 18:00:00 27,5 13,8 26,3 18,6 17,5 18 10 31 17 ZZO 1010,9 47 41 0,0
13.10.2019 17:00:00 29,1 14,1 32,2 18,4 17,5 16 9 31 17 Z 1011,1 45 60 0,0
13.10.2019 16:00:00 29,6 14,2 32,3 18,2 17,5 17 9 36 20 Z 1011,3 37 60 0,0
13.10.2019 15:00:00 28,6 14,8 30,5 18,0 17,5 23 12 51 27 ZZO 1011,3 26 60 0,0
13.10.2019 14:00:00 27,3 15,0 30,7 17,8 17,5 25 13 48 26 ZZO 1011,7 30 60 0,0
13.10.2019 13:00:00 26,1 15,5 25,2 17,8 17,5 29 16 50 27 ZZO 1011,9 37 56 0,0
13.10.2019 12:00:00 25,0 15,6 24,8 17,7 17,5 31 17 56 30 ZZO 1012,1 38 54 0,0
13.10.2019 11:00:00 23,4 15,4 21,5 17,6 17,4 32 17 64 35 ZO 1011,8 58 47 0,0
13.10.2019 10:00:00 21,6 15,0 19,2 17,7 17,5 25 13 52 28 ZO 1011,7 30 28 0,0
13.10.2019 09:00:00 19,9 14,3 18,8 17,7 17,5 29 15 51 28 ZO 1011,3 19 8 0,0
13.10.2019 08:00:00 19,7 14,3 18,2 17,7 17,5 23 12 46 25 ZO 1011,1 60 0 0,0
13.10.2019 07:00:00 19,5 14,5 18,2 17,8 17,5 22 12 47 25 ZO 1011,0 60 0 0,0
13.10.2019 06:00:00 19,7 14,5 18,5 17,8 17,5 23 12 44 24 ZO 1011,1 60 0 0,0
13.10.2019 05:00:00 19,5 14,5 18,1 17,9 17,5 20 11 40 22 ZO 1011,5 60 0 0,0
13.10.2019 04:00:00 19,5 14,5 18,2 17,9 17,5 22 12 43 23 ZO 1011,7 60 0 0,0
13.10.2019 03:00:00 19,5 14,3 18,3 17,9 17,5 21 11 40 22 ZO 1012,3 60 0 0,0
13.10.2019 02:00:00 20,0 14,4 19,0 17,9 17,5 18 10 40 21 OZO 1012,8 60 0 0,0
13.10.2019 01:00:00 20,6 14,3 19,7 18,0 17,5 19 10 46 25 ZO 1013,2 60 0 0,0
13.10.2019 00:00:00 21,1 14,5 19,8 17,9 17,5 23 12 44 24 ZO 1013,0 60 0 0,0
12.10.2019 23:00:00 21,7 14,6 20,6 17,9 17,5 23 12 57 31 ZO 1012,9 60 0 0,0
12.10.2019 22:00:00 22,9 15,0 21,8 17,9 17,5 25 13 55 30 ZZO 1012,4 60 0 0,0
12.10.2019 21:00:00 23,6 15,4 22,3 17,9 17,5 30 16 50 27 ZZO 1012,1 56 0 0,0
12.10.2019 20:00:00 24,3 15,2 22,8 17,8 17,5 21 12 39 21 ZO 1011,7 53 0 0,0
12.10.2019 19:00:00 24,8 16,0 23,6 17,7 17,5 19 11 32 17 ZO 1011,5 56 3 0,0

tt = temperatuur
td = dauwpunt
tt 5cm = temperatuur 5cm
tt -20cm = temperatuur -20cm
tt -100cm = temperatuur -100cm
ff = windsnelheid
fx = windstoten
dd = windrichting
ppp = luchtdruk
vv = zicht
sd = Zonneschijnduur
rr = neerslag

Weerstations in de omgeving